Flag for Germany Weather past 2 weeks in Emmendingen, Baden-Württemberg, Germany

Now
41 °F

Light rain. Overcast.


Feels Like: 36 °F
Forecast: 31 / 39 °F
Wind: 7 mph from Southwest

Location: Lahr

Current Time: Jan 30, 2015 at 1:25:26 AM

Latest Report: Jan 30, 2015 at 1:00 AM


Visibility: 6 mi

Pressure: 28.79 "Hg

Humidity: 89%

Dew point: 38 °F

Location of EmmendingenLocation

Historic Weather in Emmendingen — Graph

°F

Emmendingen temperature yesterday

Maximum temperature yesterday: 42 °F (at 10:00 PM)
Minimum temperature yesterday: 35 °F (at 7:00 AM)
Average temperature yesterday: 39 °F

Past Weeks' High & Low Weather Summary

 TemperatureHumidityPressure
High54 °F (Jan 15, 6:00 PM)100% (Jan 18, 5:00 AM)30.50 "Hg (Jan 18, 5:00 AM)
Low27 °F (Jan 18, 8:00 AM)49% (Jan 15, 1:00 PM)28.82 "Hg (Jan 30, 12:00 AM)
Average37 °F88%30.01 "Hg
* Reported Midnight between Jan 14 and Jan 15 — Midnight between Jan 29 and Jan 30, Emmendingen, Weather by CustomWeather, © 2014

Note: Actual official high and low records may vary slightly from our data, if they occured in-between our weather recording intervals... More about our weather records

Advertising

Emmendingen weather history for previous 24 hours

 ConditionsComfort  
Time TempWeatherWind HumidityBarometerVisibility
12:00 AM
Jan 30
42 °FLight rain. Haze.9 mph84%28.82 "Hg13 mi
11:00 PM
Jan 29
42 °FOvercast.8 mph81%28.85 "Hg43 mi
10:00 PM42 °FPassing clouds.9 mph79%28.88 "Hg43 mi
9:00 PM42 °FOvercast.8 mph81%28.94 "Hg37 mi
8:00 PM41 °FOvercast.9 mph81%29.00 "Hg37 mi
7:00 PM41 °FLight rain. Overcast.9 mph82%29.03 "Hg37 mi
6:00 PM41 °FOvercast.9 mph81%29.09 "Hg34 mi
5:00 PM41 °FOvercast.8 mph81%29.15 "Hg37 mi
4:00 PM42 °FOvercast.9 mph78%29.21 "Hg31 mi
3:00 PM42 °FOvercast.10 mph78%29.26 "Hg37 mi
2:00 PM42 °FOvercast.10 mph77%29.32 "Hg28 mi
1:00 PM41 °FLight rain. Overcast.10 mph79%29.35 "Hg22 mi
12:00 PM40 °FOvercast.12 mph80%29.41 "Hg19 mi
11:00 AM39 °FOvercast.10 mph81%29.47 "Hg37 mi
10:00 AM38 °FOvercast.8 mph82%29.53 "Hg31 mi
9:00 AM36 °FOvercast.7 mph86%29.57 "Hg31 mi
8:00 AM35 °FOvercast.7 mph89%29.59 "Hg31 mi
7:00 AM35 °FPassing clouds.6 mph91%29.60 "Hg31 mi
6:00 AM36 °FPassing clouds.6 mph85%29.64 "Hg43 mi
5:00 AM36 °FOvercast.5 mph81%29.65 "Hg34 mi
4:00 AM36 °FOvercast.5 mph86%29.65 "Hg43 mi
3:00 AM38 °FOvercast.5 mph83%29.67 "Hg43 mi
2:00 AM38 °FOvercast.5 mph86%29.66 "Hg43 mi
1:00 AM38 °FLight freezing rain. Overcast.5 mph88%29.67 "Hg11 mi
Weather by CustomWeather, © 2014

See weather overviewHow to use our weather pages